Time,TemperatureF,DewpointF,PressureIn,WindDirection,WindDirectionDegrees,WindSpeedMPH,WindSpeedGustMPH,Humidity,HourlyPrecipIn,Conditions,Clouds,dailyrainin,SoftwareType,DateUTC
2013-01-14 00:04:00,47.0,46.0,29.96,SSW,208,8.0,-999.0,98,-99.99,,,-99.99,,2013-01-14 05:04:00,
2013-01-14 00:12:00,47.0,46.0,29.96,SSW,208,8.0,-999.0,98,-99.99,,,-99.99,,2013-01-14 05:12:00,
2013-01-14 00:22:00,46.0,45.0,29.94,SSW,205,11.0,-999.0,98,-99.99,,,-99.99,,2013-01-14 05:22:00,
2013-01-14 00:33:00,47.0,47.0,29.96,WSW,241,12.0,-999.0,99,-99.99,,,-99.99,,2013-01-14 05:33:00,
2013-01-14 00:43:00,47.0,47.0,29.96,WSW,241,12.0,-999.0,99,-99.99,,,-99.99,,2013-01-14 05:43:00,
2013-01-14 00:53:00,47.0,47.0,29.95,SW,229,10.0,-999.0,99,-99.99,,,-99.99,,2013-01-14 05:53:00,
2013-01-14 01:03:00,47.0,47.0,29.95,WSW,250,9.0,-999.0,99,-99.99,,,-99.99,,2013-01-14 06:03:00,
2013-01-14 01:12:00,47.0,47.0,29.95,WSW,250,9.0,-999.0,99,-99.99,,,-99.99,,2013-01-14 06:12:00,
2013-01-14 01:22:00,47.0,47.0,29.95,SW,230,8.0,-999.0,99,-99.99,,,-99.99,,2013-01-14 06:22:00,
2013-01-14 01:33:00,47.0,47.0,29.94,SSW,196,8.0,-999.0,99,-99.99,,,-99.99,,2013-01-14 06:33:00,
2013-01-14 01:43:00,47.0,47.0,29.94,SSW,196,8.0,-999.0,99,-99.99,,,-99.99,,2013-01-14 06:43:00,
2013-01-14 01:53:00,47.0,47.0,29.95,SW,230,8.0,-999.0,99,-99.99,,,-99.99,,2013-01-14 06:53:00,
2013-01-14 02:02:00,47.0,47.0,29.95,SW,222,7.0,-999.0,99,-99.99,,,-99.99,,2013-01-14 07:02:00,
2013-01-14 02:12:00,47.0,47.0,29.95,SW,222,7.0,-999.0,99,-99.99,,,-99.99,,2013-01-14 07:12:00,
2013-01-14 02:23:00,47.0,47.0,29.96,SW,216,7.0,-999.0,99,-99.99,,,-99.99,,2013-01-14 07:23:00,
2013-01-14 02:33:00,47.0,47.0,29.96,South,181,7.0,-999.0,99,-99.99,,,-99.99,,2013-01-14 07:33:00,
2013-01-14 02:42:00,47.0,47.0,29.96,South,181,7.0,-999.0,99,-99.99,,,-99.99,,2013-01-14 07:42:00,
2013-01-14 02:53:00,47.0,47.0,29.96,West,265,7.0,-999.0,99,-99.99,,,-99.99,,2013-01-14 07:53:00,
2013-01-14 03:02:00,47.0,47.0,29.95,SW,217,4.0,-999.0,99,-99.99,,,-99.99,,2013-01-14 08:02:00,
2013-01-14 03:12:00,47.0,47.0,29.95,SW,217,4.0,-999.0,99,-99.99,,,-99.99,,2013-01-14 08:12:00,
2013-01-14 03:22:00,48.0,48.0,29.94,SW,230,1.0,-999.0,99,-99.99,,,-99.99,,2013-01-14 08:22:00,
2013-01-14 03:33:00,48.0,48.0,29.93,SW,223,2.0,-999.0,99,-99.99,,,-99.99,,2013-01-14 08:33:00,
2013-01-14 03:42:00,48.0,48.0,29.93,SW,223,2.0,-999.0,99,-99.99,,,-99.99,,2013-01-14 08:42:00,
2013-01-14 03:53:00,48.0,48.0,29.93,SW,223,2.0,-999.0,99,-99.99,,,-99.99,,2013-01-14 08:53:00,
2013-01-14 04:03:00,48.0,48.0,29.93,WSW,243,0.0,-999.0,99,-99.99,,,-99.99,,2013-01-14 09:03:00,
2013-01-14 04:12:00,48.0,48.0,29.93,WSW,243,0.0,-999.0,99,-99.99,,,-99.99,,2013-01-14 09:12:00,
2013-01-14 04:23:00,48.0,48.0,29.91,SSW,210,0.0,-999.0,99,-99.99,,,-99.99,,2013-01-14 09:23:00,
2013-01-14 04:33:00,47.0,47.0,29.91,SSW,195,3.0,-999.0,99,-99.99,,,-99.99,,2013-01-14 09:33:00,
2013-01-14 04:43:00,47.0,47.0,29.91,SSW,195,3.0,-999.0,99,-99.99,,,-99.99,,2013-01-14 09:43:00,
2013-01-14 04:53:00,47.0,47.0,29.90,WSW,244,6.0,-999.0,99,-99.99,,,-99.99,,2013-01-14 09:53:00,
2013-01-14 05:02:00,47.0,47.0,29.90,WSW,243,7.0,-999.0,99,-99.99,,,-99.99,,2013-01-14 10:02:00,
2013-01-14 05:12:00,47.0,47.0,29.90,WSW,243,7.0,-999.0,99,-99.99,,,-99.99,,2013-01-14 10:12:00,
2013-01-14 05:23:00,47.0,47.0,29.89,SSW,192,7.0,-999.0,99,-99.99,,,-99.99,,2013-01-14 10:23:00,
2013-01-14 05:32:00,47.0,47.0,29.89,SW,217,7.0,-999.0,99,-99.99,,,-99.99,,2013-01-14 10:32:00,
2013-01-14 05:42:00,47.0,47.0,29.89,SW,217,7.0,-999.0,99,-99.99,,,-99.99,,2013-01-14 10:42:00,
2013-01-14 05:52:00,47.0,47.0,29.89,SSW,203,8.0,-999.0,99,-99.99,,,-99.99,,2013-01-14 10:52:00,
2013-01-14 06:02:00,47.0,47.0,29.89,WSW,248,9.0,-999.0,99,-99.99,,,-99.99,,2013-01-14 11:02:00,
2013-01-14 06:12:00,47.0,47.0,29.89,WSW,248,9.0,-999.0,99,-99.99,,,-99.99,,2013-01-14 11:12:00,
2013-01-14 06:22:00,47.0,47.0,29.89,WSW,248,6.0,-999.0,99,-99.99,,,-99.99,,2013-01-14 11:22:00,
2013-01-14 06:33:00,47.0,47.0,29.89,SW,216,7.0,-999.0,99,-99.99,,,-99.99,,2013-01-14 11:33:00,
2013-01-14 06:43:00,47.0,47.0,29.89,SW,216,7.0,-999.0,99,-99.99,,,-99.99,,2013-01-14 11:43:00,
2013-01-14 06:53:00,47.0,47.0,29.88,SSW,210,11.0,-999.0,99,-99.99,,,-99.99,,2013-01-14 11:53:00,
2013-01-14 07:03:00,47.0,47.0,29.86,SW,215,9.0,-999.0,99,-99.99,,,-99.99,,2013-01-14 12:03:00,
2013-01-14 07:12:00,47.0,47.0,29.86,SW,215,9.0,-999.0,99,-99.99,,,-99.99,,2013-01-14 12:12:00,
2013-01-14 07:23:00,47.0,47.0,29.88,SW,223,9.0,-999.0,99,-99.99,,,-99.99,,2013-01-14 12:23:00,
2013-01-14 07:33:00,48.0,48.0,29.88,SW,230,9.0,-999.0,99,-99.99,,,-99.99,,2013-01-14 12:33:00,
2013-01-14 07:43:00,48.0,48.0,29.88,SW,230,9.0,-999.0,99,-99.99,,,-99.99,,2013-01-14 12:43:00,
2013-01-14 07:53:00,48.0,48.0,29.88,WSW,240,10.0,-999.0,99,-99.99,,,-99.99,,2013-01-14 12:53:00,
2013-01-14 08:03:00,48.0,48.0,29.89,South,181,11.0,-999.0,99,-99.99,,,-99.99,,2013-01-14 13:03:00,
2013-01-14 08:13:00,48.0,48.0,29.89,South,181,11.0,-999.0,99,-99.99,,,-99.99,,2013-01-14 13:13:00,
2013-01-14 08:23:00,48.0,48.0,29.88,WSW,246,10.0,-999.0,99,-99.99,,,-99.99,,2013-01-14 13:23:00,
2013-01-14 08:33:00,48.0,48.0,29.88,SW,216,11.0,-999.0,99,-99.99,,,-99.99,,2013-01-14 13:33:00,
2013-01-14 08:43:00,48.0,48.0,29.88,SW,216,11.0,-999.0,99,-99.99,,,-99.99,,2013-01-14 13:43:00,
2013-01-14 08:53:00,48.0,48.0,29.88,West,265,12.0,-999.0,99,-99.99,,,-99.99,,2013-01-14 13:53:00,
2013-01-14 09:03:00,48.0,48.0,29.88,SSW,212,13.0,-999.0,99,-99.99,,,-99.99,,2013-01-14 14:03:00,
2013-01-14 09:13:00,48.0,48.0,29.88,SSW,212,13.0,-999.0,99,-99.99,,,-99.99,,2013-01-14 14:13:00,
2013-01-14 09:23:00,49.0,49.0,29.88,SSW,206,10.0,-999.0,99,-99.99,,,-99.99,,2013-01-14 14:23:00,
2013-01-14 09:33:00,48.0,48.0,29.88,WSW,248,11.0,-999.0,99,-99.99,,,-99.99,,2013-01-14 14:33:00,
2013-01-14 09:43:00,48.0,48.0,29.88,WSW,248,11.0,-999.0,99,-99.99,,,-99.99,,2013-01-14 14:43:00,
2013-01-14 09:53:00,48.0,48.0,29.86,WSW,247,9.0,-999.0,99,-99.99,,,-99.99,,2013-01-14 14:53:00,
2013-01-14 10:03:00,48.0,48.0,29.87,SSW,212,9.0,-999.0,99,-99.99,,,-99.99,,2013-01-14 15:03:00,
2013-01-14 10:12:00,48.0,48.0,29.87,SSW,212,9.0,-999.0,99,-99.99,,,-99.99,,2013-01-14 15:12:00,
2013-01-14 10:23:00,48.0,48.0,29.89,SW,226,11.0,-999.0,99,-99.99,,,-99.99,,2013-01-14 15:23:00,
2013-01-14 10:33:00,49.0,49.0,29.89,WSW,240,12.0,-999.0,99,-99.99,,,-99.99,,2013-01-14 15:33:00,
2013-01-14 10:43:00,49.0,49.0,29.89,WSW,240,12.0,-999.0,99,-99.99,,,-99.99,,2013-01-14 15:43:00,
2013-01-14 10:53:00,48.0,48.0,29.89,WSW,258,11.0,-999.0,99,-99.99,,,-99.99,,2013-01-14 15:53:00,
2013-01-14 11:03:00,47.0,47.0,29.88,SW,234,9.0,-999.0,99,-99.99,,,-99.99,,2013-01-14 16:03:00,
2013-01-14 11:12:00,47.0,47.0,29.88,SW,234,9.0,-999.0,99,-99.99,,,-99.99,,2013-01-14 16:12:00,
2013-01-14 11:23:00,47.0,47.0,29.88,SSW,208,7.0,-999.0,99,-99.99,,,-99.99,,2013-01-14 16:23:00,
2013-01-14 11:33:00,47.0,47.0,29.88,SSW,208,7.0,-999.0,99,-99.99,,,-99.99,,2013-01-14 16:33:00,
2013-01-14 11:43:00,47.0,47.0,29.88,SSW,208,7.0,-999.0,99,-99.99,,,-99.99,,2013-01-14 16:43:00,
2013-01-14 11:53:00,47.0,47.0,29.88,West,268,10.0,-999.0,99,-99.99,,,-99.99,,2013-01-14 16:53:00,
2013-01-14 12:03:00,47.0,47.0,29.87,WNW,289,6.0,-999.0,99,-99.99,,,-99.99,,2013-01-14 17:03:00,
2013-01-14 12:12:00,47.0,47.0,29.87,WNW,289,6.0,-999.0,99,-99.99,,,-99.99,,2013-01-14 17:12:00,
2013-01-14 12:23:00,46.0,46.0,29.87,WNW,299,3.0,-999.0,99,-99.99,,,-99.99,,2013-01-14 17:23:00,
2013-01-14 12:33:00,46.0,46.0,29.87,West,278,3.0,-999.0,99,-99.99,,,-99.99,,2013-01-14 17:33:00,
2013-01-14 12:43:00,46.0,46.0,29.87,West,278,3.0,-999.0,99,-99.99,,,-99.99,,2013-01-14 17:43:00,
2013-01-14 12:53:00,47.0,47.0,29.88,West,261,8.0,-999.0,99,-99.99,,,-99.99,,2013-01-14 17:53:00,
2013-01-14 13:03:00,47.0,47.0,29.88,West,277,6.0,-999.0,99,-99.99,,,-99.99,,2013-01-14 18:03:00,
2013-01-14 13:13:00,47.0,47.0,29.88,West,277,6.0,-999.0,99,-99.99,,,-99.99,,2013-01-14 18:13:00,
2013-01-14 13:23:00,47.0,47.0,29.88,WNW,285,7.0,-999.0,99,-99.99,,,-99.99,,2013-01-14 18:23:00,
2013-01-14 13:33:00,47.0,47.0,29.89,WNW,285,7.0,-999.0,99,-99.99,,,-99.99,,2013-01-14 18:33:00,
2013-01-14 13:43:00,47.0,47.0,29.89,WNW,285,7.0,-999.0,99,-99.99,,,-99.99,,2013-01-14 18:43:00,
2013-01-14 13:52:00,47.0,47.0,29.89,West,275,6.0,-999.0,99,-99.99,,,-99.99,,2013-01-14 18:52:00,
2013-01-14 14:03:00,48.0,48.0,29.91,WNW,296,4.0,-999.0,99,-99.99,,,-99.99,,2013-01-14 19:03:00,
2013-01-14 14:13:00,48.0,48.0,29.91,WNW,296,4.0,-999.0,99,-99.99,,,-99.99,,2013-01-14 19:13:00,
2013-01-14 14:22:00,48.0,48.0,29.92,WSW,256,3.0,-999.0,99,-99.99,,,-99.99,,2013-01-14 19:22:00,
2013-01-14 14:33:00,48.0,48.0,29.93,WNW,284,3.0,-999.0,99,-99.99,,,-99.99,,2013-01-14 19:33:00,
2013-01-14 14:43:00,48.0,48.0,29.93,WNW,284,3.0,-999.0,99,-99.99,,,-99.99,,2013-01-14 19:43:00,
2013-01-14 14:53:00,48.0,47.0,29.93,NW,309,3.0,-999.0,98,-99.99,,,-99.99,,2013-01-14 19:53:00,
2013-01-14 15:03:00,48.0,47.0,29.94,West,275,1.0,-999.0,98,-99.99,,,-99.99,,2013-01-14 20:03:00,
2013-01-14 15:13:00,48.0,47.0,29.94,West,275,1.0,-999.0,98,-99.99,,,-99.99,,2013-01-14 20:13:00,
2013-01-14 15:23:00,48.0,47.0,29.96,WNW,295,0.0,-999.0,98,-99.99,,,-99.99,,2013-01-14 20:23:00,
2013-01-14 15:33:00,48.0,47.0,29.97,NW,311,0.0,-999.0,98,-99.99,,,-99.99,,2013-01-14 20:33:00,
2013-01-14 15:43:00,48.0,47.0,29.97,NW,311,0.0,-999.0,98,-99.99,,,-99.99,,2013-01-14 20:43:00,
2013-01-14 15:53:00,49.0,48.0,29.97,NW,309,2.0,-999.0,98,-99.99,,,-99.99,,2013-01-14 20:53:00,
2013-01-14 16:03:00,48.0,47.0,29.98,NNW,344,5.0,-999.0,98,-99.99,,,-99.99,,2013-01-14 21:03:00,
2013-01-14 16:12:00,48.0,47.0,29.98,NNW,344,5.0,-999.0,98,-99.99,,,-99.99,,2013-01-14 21:12:00,
2013-01-14 16:23:00,46.0,45.0,29.99,NNW,333,6.0,-999.0,98,-99.99,,,-99.99,,2013-01-14 21:23:00,
2013-01-14 16:33:00,44.0,43.0,30.01,NNW,337,7.0,-999.0,97,-99.99,,,-99.99,,2013-01-14 21:33:00,
2013-01-14 16:43:00,44.0,43.0,30.01,NNW,337,7.0,-999.0,97,-99.99,,,-99.99,,2013-01-14 21:43:00,
2013-01-14 16:53:00,44.0,39.0,30.01,NW,305,10.0,-999.0,81,-99.99,,,-99.99,,2013-01-14 21:53:00,
2013-01-14 17:03:00,44.0,36.0,30.03,NW,316,7.0,-999.0,74,-99.99,,,-99.99,,2013-01-14 22:03:00,
2013-01-14 17:12:00,44.0,36.0,30.03,NW,316,7.0,-999.0,74,-99.99,,,-99.99,,2013-01-14 22:12:00,
2013-01-14 17:23:00,44.0,35.0,30.03,NNW,340,6.0,-999.0,71,-99.99,,,-99.99,,2013-01-14 22:23:00,
2013-01-14 17:33:00,44.0,35.0,30.06,NW,312,4.0,-999.0,70,-99.99,,,-99.99,,2013-01-14 22:33:00,
2013-01-14 17:43:00,44.0,35.0,30.06,NW,312,4.0,-999.0,70,-99.99,,,-99.99,,2013-01-14 22:43:00,
2013-01-14 17:52:00,43.0,33.0,30.06,NNW,340,4.0,-999.0,68,-99.99,,,-99.99,,2013-01-14 22:52:00,
2013-01-14 18:03:00,43.0,33.0,30.06,NW,322,2.0,-999.0,67,-99.99,,,-99.99,,2013-01-14 23:03:00,
2013-01-14 18:12:00,43.0,33.0,30.06,NW,322,2.0,-999.0,67,-99.99,,,-99.99,,2013-01-14 23:12:00,
2013-01-14 18:23:00,42.0,32.0,30.07,North,354,3.0,-999.0,67,-99.99,,,-99.99,,2013-01-14 23:23:00,
2013-01-14 18:33:00,41.0,32.0,30.09,North,353,1.0,-999.0,70,-99.99,,,-99.99,,2013-01-14 23:33:00,
2013-01-14 18:43:00,41.0,32.0,30.09,North,353,1.0,-999.0,70,-99.99,,,-99.99,,2013-01-14 23:43:00,
2013-01-14 18:53:00,41.0,31.0,30.08,NNW,343,5.0,-999.0,68,-99.99,,,-99.99,,2013-01-14 23:53:00,
2013-01-14 19:03:00,41.0,31.0,30.08,North,360,3.0,-999.0,68,-99.99,,,-99.99,,2013-01-15 00:03:00,
2013-01-14 19:12:00,41.0,31.0,30.08,North,360,3.0,-999.0,68,-99.99,,,-99.99,,2013-01-15 00:12:00,
2013-01-14 19:23:00,41.0,31.0,30.09,North,360,8.0,-999.0,66,-99.99,,,-99.99,,2013-01-15 00:23:00,
2013-01-14 19:33:00,40.0,30.0,30.09,North,4,4.0,-999.0,66,-99.99,,,-99.99,,2013-01-15 00:33:00,
2013-01-14 19:43:00,40.0,30.0,30.09,North,4,4.0,-999.0,66,-99.99,,,-99.99,,2013-01-15 00:43:00,
2013-01-14 19:52:00,39.0,29.0,30.09,NNW,335,3.0,-999.0,68,-99.99,,,-99.99,,2013-01-15 00:52:00,
2013-01-14 20:02:00,39.0,29.0,30.09,North,360,6.0,-999.0,67,-99.99,,,-99.99,,2013-01-15 01:02:00,
2013-01-14 20:12:00,39.0,28.0,30.12,WNW,294,9.0,-999.0,65,-99.99,,,-99.99,,2013-01-15 01:12:00,
2013-01-14 20:22:00,39.0,28.0,30.12,WNW,294,9.0,-999.0,65,-99.99,,,-99.99,,2013-01-15 01:22:00,
2013-01-14 20:32:00,39.0,28.0,30.12,NW,308,9.0,-999.0,64,-99.99,,,-99.99,,2013-01-15 01:32:00,
2013-01-14 20:43:00,39.0,28.0,30.12,NW,308,9.0,-999.0,64,-99.99,,,-99.99,,2013-01-15 01:43:00,
2013-01-14 20:52:00,39.0,27.0,30.13,NNW,332,8.0,-999.0,63,-99.99,,,-99.99,,2013-01-15 01:52:00,
2013-01-14 21:02:00,39.0,27.0,30.12,NNW,342,9.0,-999.0,62,-99.99,,,-99.99,,2013-01-15 02:02:00,
2013-01-14 21:12:00,39.0,27.0,30.12,NNW,342,9.0,-999.0,62,-99.99,,,-99.99,,2013-01-15 02:12:00,
2013-01-14 21:23:00,38.0,27.0,30.14,NW,318,10.0,-999.0,64,-99.99,,,-99.99,,2013-01-15 02:23:00,
2013-01-14 21:32:00,38.0,27.0,30.14,NW,322,9.0,-999.0,63,-99.99,,,-99.99,,2013-01-15 02:32:00,
2013-01-14 21:42:00,38.0,27.0,30.14,NW,322,9.0,-999.0,63,-99.99,,,-99.99,,2013-01-15 02:42:00,
2013-01-14 21:53:00,38.0,26.0,30.16,North,353,9.0,-999.0,62,-99.99,,,-99.99,,2013-01-15 02:53:00,
2013-01-14 22:03:00,38.0,27.0,30.16,North,350,6.0,-999.0,63,-99.99,,,-99.99,,2013-01-15 03:03:00,
2013-01-14 22:12:00,38.0,27.0,30.16,North,350,6.0,-999.0,63,-99.99,,,-99.99,,2013-01-15 03:12:00,
2013-01-14 22:22:00,37.0,26.0,30.16,NW,325,3.0,-999.0,64,-99.99,,,-99.99,,2013-01-15 03:22:00,
2013-01-14 22:33:00,37.0,26.0,30.14,NW,325,7.0,-999.0,64,-99.99,,,-99.99,,2013-01-15 03:33:00,
2013-01-14 22:42:00,37.0,26.0,30.14,NW,325,7.0,-999.0,64,-99.99,,,-99.99,,2013-01-15 03:42:00,
2013-01-14 22:53:00,37.0,26.0,30.14,NW,312,5.0,-999.0,65,-99.99,,,-99.99,,2013-01-15 03:53:00,
2013-01-14 23:02:00,37.0,25.0,30.12,NNW,328,7.0,-999.0,62,-99.99,,,-99.99,,2013-01-15 04:02:00,
2013-01-14 23:12:00,37.0,25.0,30.12,NNW,328,7.0,-999.0,62,-99.99,,,-99.99,,2013-01-15 04:12:00,
2013-01-14 23:22:00,37.0,26.0,30.15,NNW,335,4.0,-999.0,63,-99.99,,,-99.99,,2013-01-15 04:22:00,
2013-01-14 23:32:00,37.0,25.0,30.15,NW,323,3.0,-999.0,62,-99.99,,,-99.99,,2013-01-15 04:32:00,
2013-01-14 23:42:00,37.0,25.0,30.15,NW,323,3.0,-999.0,62,-99.99,,,-99.99,,2013-01-15 04:42:00,
2013-01-14 23:52:00,37.0,26.0,30.16,North,356,3.0,-999.0,64,-99.99,,,-99.99,,2013-01-15 04:52:00,